QPF
0.00 0.00 0.00 0.00 0.00 0.00 0.00 0.00 0.00 0.00 0.00 0.00 0.00 0.00 0.00 0.00 0.00 0.00 0.00 0.00 0.00 0.00 0.00 0.00 0.00 0.00 0.00 0.00 0.00 0.00 0.00 0.00 0.00 0.00 0.00 0.00 0.00 0.00 0.00 0.00 0.00 0.00 0.00
0.00 0.00 0.00 0.00 0.00 0.00 0.00 0.00 0.00 0.00 0.00 0.00 0.00 0.00 0.00 0.00 0.00 0.00 0.00 0.00 0.00 0.00 0.00 0.00 0.00 0.00 0.00 0.00 0.00 0.00 0.00 0.00 0.00 0.00 0.00 0.00 0.00 0.00 0.00 0.00 0.00 0.00 0.00
0.00 0.00 0.00 0.00 0.00 0.00 0.00 0.00 0.00 0.00 0.00 0.00 0.00 0.00 0.00 0.00 0.00 0.00 0.00 0.00 0.00 0.00 0.00 0.00 0.00 0.00 0.00 0.00 0.00 0.00 0.00 0.00 0.01 0.01 0.01 0.00 0.00 0.00 0.00 0.00 0.00 0.00 0.00
0.00 0.00 0.00 0.00 0.00 0.00 0.00 0.00 0.00 0.00 0.00 0.00 0.00 0.00 0.00 0.00 0.00 0.00 0.00 0.00 0.00 0.00 0.00 0.00 0.00 0.00 0.00 0.00 0.00 0.00 0.00 0.01 0.01 0.01 0.01 0.01 0.01 0.00 0.01 0.01 0.01 0.00 0.00
0.00 0.00 0.00 0.00 0.00 0.00 0.00 0.00 0.00 0.00 0.00 0.00 0.00 0.00 0.00 0.00 0.00 0.00 0.00 0.00 0.00 0.00 0.00 0.00 0.00 0.00 0.00 0.01 0.01 0.01 0.01 0.02 0.03 0.03 0.04 0.03 0.03 0.02 0.02 0.02 0.02 0.01 0.01
0.00 0.00 0.00 0.00 0.00 0.00 0.00 0.00 0.00 0.00 0.00 0.00 0.00 0.00 0.00 0.00 0.00 0.00 0.00 0.00 0.00 0.00 0.00 0.00 0.00 0.00 0.00 0.01 0.01 0.02 0.02 0.03 0.04 0.05 0.05 0.05 0.03 0.02 0.02 0.02 0.02 0.03 0.02
0.00 0.00 0.00 0.00 0.00 0.00 0.00 0.00 0.00 0.00 0.00 0.00 0.00 0.00 0.00 0.00 0.00 0.00 0.00 0.00 0.00 0.00 0.00 0.00 0.00 0.00 0.00 0.00 0.00 0.01 0.01 0.02 0.03 0.04 0.04 0.03 0.02 0.01 0.02 0.02 0.02 0.03 0.03
0.00 0.00 0.00 0.00 0.00 0.00 0.00 0.00 0.00 0.00 0.00 0.00 0.00 0.00 0.00 0.00 0.00 0.00 0.00 0.00 0.00 0.00 0.00 0.00 0.00 0.00 0.00 0.00 0.01 0.01 0.01 0.01 0.01 0.02 0.02 0.02 0.02 0.02 0.03 0.04 0.06 0.06 0.05
0.00 0.00 0.00 0.00 0.00 0.00 0.00 0.00 0.00 0.00 0.00 0.00 0.00 0.00 0.00 0.00 0.00 0.00 0.00 0.00 0.00 0.00 0.00 0.00 0.00 0.00 0.01 0.03 0.03 0.02 0.02 0.01 0.01 0.02 0.03 0.03 0.04 0.05 0.06 0.09 0.11 0.13 0.11
0.00 0.00 0.00 0.00 0.00 0.00 0.00 0.00 0.00 0.00 0.00 0.00 0.00 0.00 0.00 0.00 0.00 0.00 0.00 0.00 0.00 0.00 0.00 0.00 0.01 0.01 0.02 0.03 0.03 0.03 0.03 0.01 0.01 0.01 0.02 0.02 0.02 0.02 0.02 0.04 0.06 0.09 0.09
0.00 0.00 0.00 0.00 0.00 0.00 0.00 0.00 0.00 0.00 0.00 0.00 0.00 0.00 0.00 0.00 0.00 0.00 0.00 0.00 0.01 0.01 0.01 0.01 0.01 0.01 0.02 0.03 0.04 0.03 0.03 0.04 0.04 0.04 0.03 0.02 0.01 0.01 0.01 0.01 0.02 0.05 0.09
0.00 0.00 0.00 0.00 0.00 0.00 0.00 0.00 0.00 0.00 0.00 0.00 0.00 0.00 0.00 0.00 0.00 0.00 0.01 0.01 0.01 0.01 0.01 0.01 0.01 0.02 0.03 0.04 0.03 0.02 0.03 0.04 0.03 0.02 0.01 0.01 0.01 0.01 0.01 0.01 0.01 0.02 0.03
0.00 0.00 0.00 0.00 0.00 0.00 0.00 0.00 0.00 0.00 0.00 0.00 0.00 0.00 0.00 0.00 0.00 0.00 0.00 0.01 0.01 0.02 0.01 0.02 0.02 0.03 0.03 0.02 0.01 0.01 0.02 0.01 0.01 0.02 0.01 0.01 0.01 0.01 0.01 0.01 0.01 0.01 0.02
0.00 0.00 0.00 0.00 0.00 0.00 0.00 0.00 0.00 0.00 0.00 0.00 0.00 0.00 0.00 0.00 0.00 0.00 0.00 0.01 0.02 0.02 0.02 0.02 0.03 0.03 0.01 0.01 0.01 0.01 0.00 0.00 0.01 0.02 0.02 0.01 0.01 0.01 0.01 0.01 0.02 0.02 0.03
0.00 0.00 0.00 0.00 0.00 0.00 0.00 0.00 0.00 0.00 0.00 0.00 0.00 0.00 0.01 0.01 0.01 0.01 0.03 0.03 0.03 0.04 0.05 0.05 0.03 0.02 0.01 0.00 0.00 0.00 0.00 0.00 0.01 0.01 0.01 0.01 0.01 0.01 0.01 0.01 0.02 0.03 0.04
0.00 0.00 0.00 0.00 0.00 0.00 0.00 0.00 0.00 0.00 0.00 0.00 0.00 0.01 0.01 0.01 0.01 0.02 0.03 0.03 0.04 0.04 0.05 0.04 0.02 0.01 0.01 0.01 0.01 0.01 0.00 0.00 0.01 0.01 0.01 0.01 0.01 0.01 0.01 0.01 0.01 0.03 0.03
0.00 0.00 0.00 0.00 0.00 0.00 0.00 0.00 0.00 0.00 0.00 0.00 0.00 0.00 0.01 0.01 0.01 0.02 0.02 0.03 0.03 0.02 0.02 0.01 0.01 0.01 0.01 0.01 0.01 0.01 0.01 0.00 0.01 0.01 0.01 0.01 0.01 0.01 0.01 0.01 0.01 0.01 0.01
0.00 0.00 0.00 0.00 0.00 0.00 0.00 0.00 0.00 0.00 0.00 0.00 0.00 0.00 0.00 0.01 0.01 0.01 0.02 0.02 0.01 0.00 0.00 0.01 0.01 0.01 0.01 0.01 0.01 0.01 0.01 0.00 0.00 0.01 0.01 0.01 0.01 0.01 0.01 0.01 0.01 0.01 0.01
0.00 0.00 0.00 0.00 0.00 0.00 0.00 0.00 0.00 0.00 0.00 0.00 0.00 0.00 0.00 0.00 0.01 0.01 0.01 0.01 0.01 0.01 0.01 0.01 0.01 0.01 0.01 0.01 0.01 0.01 0.01 0.01 0.00 0.01 0.01 0.01 0.01 0.01 0.01 0.01 0.01 0.01 0.01
0.00 0.00 0.00 0.00 0.00 0.00 0.00 0.00 0.00 0.01 0.01 0.01 0.01 0.00 0.00 0.01 0.01 0.01 0.01 0.01 0.01 0.01 0.01 0.01 0.01 0.01 0.01 0.01 0.01 0.01 0.01 0.01 0.01 0.01 0.01 0.01 0.01 0.01 0.01 0.01 0.01 0.01 0.01
0.00 0.00 0.00 0.00 0.00 0.00 0.00 0.00 0.01 0.01 0.01 0.01 0.01 0.00 0.01 0.02 0.03 0.01 0.01 0.01 0.01 0.01 0.02 0.02 0.02 0.01 0.01 0.02 0.02 0.01 0.01 0.01 0.01 0.01 0.01 0.01 0.01 0.01 0.01 0.01 0.01 0.01 0.01
0.00 0.00 0.00 0.00 0.00 0.00 0.01 0.01 0.01 0.01 0.01 0.01 0.01 0.00 0.01 0.01 0.01 0.01 0.01 0.01 0.01 0.01 0.02 0.02 0.02 0.01 0.01 0.02 0.02 0.02 0.02 0.01 0.01 0.01 0.01 0.01 0.01 0.01 0.01 0.01 0.01 0.01 0.01
0.00 0.00 0.00 0.00 0.00 0.01 0.01 0.01 0.01 0.01 0.01 0.01 0.01 0.01 0.01 0.01 0.01 0.01 0.01 0.01 0.01 0.01 0.01 0.02 0.02 0.02 0.01 0.02 0.02 0.03 0.02 0.01 0.01 0.01 0.01 0.01 0.01 0.01 0.01 0.01 0.01 0.01 0.01
0.00 0.00 0.01 0.01 0.01 0.01 0.01 0.01 0.01 0.01 0.01 0.01 0.01 0.01 0.01 0.01 0.01 0.01 0.01 0.01 0.01 0.01 0.01 0.01 0.02 0.02 0.01 0.01 0.02 0.02 0.01 0.01 0.02 0.02 0.02 0.02 0.02 0.01 0.01 0.01 0.01 0.01 0.01
0.00 0.01 0.01 0.01 0.01 0.01 0.01 0.01 0.01 0.01 0.01 0.01 0.01 0.01 0.01 0.01 0.01 0.01 0.01 0.01 0.01 0.01 0.01 0.01 0.01 0.01 0.01 0.01 0.01 0.01 0.01 0.01 0.02 0.03 0.04 0.04 0.03 0.02 0.01 0.02 0.01 0.01 0.01
0.00 0.00 0.00 0.00 0.01 0.01 0.01 0.01 0.01 0.01 0.01 0.01 0.01 0.01 0.01 0.01 0.01 0.01 0.01 0.01 0.01 0.01 0.01 0.01 0.01 0.01 0.01 0.01 0.01 0.01 0.01 0.02 0.02 0.02 0.04 0.06 0.05 0.03 0.02 0.03 0.02 0.02 0.02
MSLP
1020.04 1020.42 1020.78 1021.10 1021.38 1021.61 1021.79 1021.93 1022.01 1022.05 1022.03 1021.95 1021.80 1021.59 1021.34 1021.05 1020.75 1020.47 1020.21 1020.01 1019.84 1019.72 1019.62 1019.50 1019.36 1019.16 1018.90 1018.57 1018.17 1017.73 1017.25 1016.77 1016.30 1015.83 1015.38 1014.93 1014.49 1014.04 1013.57 1013.10 1012.61 1012.14 1011.67
1020.02 1020.41 1020.77 1021.08 1021.36 1021.58 1021.76 1021.89 1021.97 1021.99 1021.95 1021.85 1021.67 1021.42 1021.13 1020.80 1020.45 1020.13 1019.83 1019.58 1019.38 1019.20 1019.05 1018.89 1018.69 1018.45 1018.15 1017.79 1017.38 1016.94 1016.48 1016.02 1015.57 1015.14 1014.71 1014.29 1013.85 1013.40 1012.94 1012.45 1011.97 1011.48 1011.02
1020.05 1020.44 1020.79 1021.08 1021.33 1021.53 1021.68 1021.79 1021.85 1021.84 1021.78 1021.64 1021.43 1021.16 1020.83 1020.47 1020.09 1019.73 1019.40 1019.11 1018.86 1018.64 1018.44 1018.22 1017.98 1017.69 1017.35 1016.96 1016.54 1016.10 1015.65 1015.20 1014.77 1014.35 1013.94 1013.52 1013.09 1012.64 1012.16 1011.67 1011.18 1010.70 1010.24
1020.10 1020.48 1020.80 1021.06 1021.27 1021.43 1021.54 1021.61 1021.63 1021.60 1021.51 1021.35 1021.11 1020.81 1020.46 1020.07 1019.67 1019.29 1018.93 1018.61 1018.32 1018.06 1017.81 1017.54 1017.25 1016.92 1016.54 1016.13 1015.69 1015.24 1014.79 1014.35 1013.93 1013.51 1013.10 1012.68 1012.24 1011.77 1011.28 1010.79 1010.29 1009.81 1009.37
1020.13 1020.49 1020.78 1020.99 1021.15 1021.26 1021.32 1021.35 1021.34 1021.28 1021.16 1020.98 1020.72 1020.41 1020.04 1019.64 1019.23 1018.82 1018.44 1018.09 1017.77 1017.46 1017.17 1016.86 1016.52 1016.15 1015.75 1015.31 1014.86 1014.40 1013.94 1013.51 1013.08 1012.66 1012.24 1011.80 1011.34 1010.86 1010.36 1009.85 1009.36 1008.88 1008.45
1020.10 1020.43 1020.68 1020.85 1020.95 1021.01 1021.04 1021.03 1020.99 1020.91 1020.77 1020.58 1020.31 1019.99 1019.61 1019.20 1018.77 1018.35 1017.95 1017.57 1017.21 1016.87 1016.53 1016.18 1015.81 1015.40 1014.97 1014.52 1014.05 1013.58 1013.13 1012.69 1012.26 1011.83 1011.40 1010.95 1010.48 1009.99 1009.47 1008.96 1008.46 1007.99 1007.57
1019.99 1020.29 1020.49 1020.61 1020.68 1020.70 1020.70 1020.67 1020.61 1020.51 1020.37 1020.17 1019.91 1019.58 1019.19 1018.77 1018.33 1017.89 1017.46 1017.05 1016.65 1016.27 1015.89 1015.50 1015.09 1014.66 1014.20 1013.73 1013.26 1012.79 1012.34 1011.91 1011.48 1011.06 1010.63 1010.18 1009.71 1009.21 1008.70 1008.18 1007.68 1007.21 1006.80
1019.79 1020.04 1020.20 1020.29 1020.32 1020.32 1020.31 1020.27 1020.21 1020.11 1019.97 1019.77 1019.50 1019.17 1018.78 1018.35 1017.89 1017.42 1016.96 1016.51 1016.08 1015.66 1015.23 1014.80 1014.36 1013.90 1013.43 1012.95 1012.48 1012.02 1011.58 1011.17 1010.77 1010.37 1009.96 1009.53 1009.07 1008.58 1008.08 1007.57 1007.07 1006.60 1006.18
1019.50 1019.70 1019.82 1019.88 1019.90 1019.90 1019.87 1019.84 1019.78 1019.69 1019.55 1019.35 1019.08 1018.74 1018.34 1017.90 1017.42 1016.92 1016.43 1015.95 1015.47 1015.00 1014.54 1014.07 1013.59 1013.11 1012.62 1012.14 1011.68 1011.25 1010.84 1010.46 1010.10 1009.75 1009.38 1008.99 1008.57 1008.12 1007.63 1007.13 1006.64 1006.16 1005.73
1019.13 1019.29 1019.38 1019.42 1019.43 1019.42 1019.40 1019.37 1019.32 1019.23 1019.08 1018.88 1018.60 1018.25 1017.83 1017.37 1016.87 1016.35 1015.83 1015.31 1014.80 1014.30 1013.80 1013.30 1012.79 1012.29 1011.80 1011.32 1010.88 1010.47 1010.11 1009.78 1009.48 1009.19 1008.88 1008.56 1008.19 1007.78 1007.33 1006.85 1006.36 1005.88 1005.43
1018.72 1018.83 1018.89 1018.91 1018.91 1018.90 1018.88 1018.84 1018.78 1018.68 1018.52 1018.30 1018.00 1017.63 1017.20 1016.72 1016.20 1015.67 1015.14 1014.60 1014.07 1013.55 1013.02 1012.50 1011.98 1011.47 1010.97 1010.51 1010.09 1009.72 1009.40 1009.12 1008.89 1008.67 1008.44 1008.19 1007.89 1007.54 1007.13 1006.68 1006.20 1005.71 1005.24
1018.28 1018.35 1018.37 1018.37 1018.36 1018.34 1018.30 1018.25 1018.16 1018.03 1017.84 1017.58 1017.25 1016.86 1016.41 1015.92 1015.41 1014.88 1014.35 1013.82 1013.30 1012.77 1012.25 1011.72 1011.20 1010.68 1010.19 1009.74 1009.34 1009.00 1008.72 1008.50 1008.33 1008.18 1008.02 1007.85 1007.62 1007.33 1006.98 1006.56 1006.10 1005.62 1005.13
1017.83 1017.86 1017.85 1017.83 1017.79 1017.74 1017.67 1017.58 1017.44 1017.26 1017.02 1016.72 1016.35 1015.94 1015.48 1014.99 1014.49 1013.99 1013.49 1013.00 1012.50 1012.00 1011.50 1010.99 1010.48 1009.97 1009.49 1009.05 1008.66 1008.34 1008.10 1007.92 1007.80 1007.70 1007.62 1007.51 1007.35 1007.12 1006.82 1006.45 1006.02 1005.55 1005.07
1017.40 1017.39 1017.35 1017.29 1017.22 1017.13 1017.00 1016.85 1016.65 1016.40 1016.09 1015.74 1015.33 1014.89 1014.43 1013.96 1013.50 1013.04 1012.60 1012.16 1011.73 1011.28 1010.82 1010.34 1009.85 1009.36 1008.89 1008.46 1008.08 1007.77 1007.54 1007.38 1007.29 1007.24 1007.20 1007.15 1007.05 1006.88 1006.64 1006.32 1005.94 1005.51 1005.05
1016.97 1016.93 1016.87 1016.77 1016.66 1016.51 1016.32 1016.09 1015.81 1015.48 1015.11 1014.69 1014.24 1013.79 1013.33 1012.90 1012.48 1012.09 1011.72 1011.36 1011.00 1010.62 1010.22 1009.79 1009.33 1008.86 1008.39 1007.96 1007.58 1007.26 1007.03 1006.88 1006.80 1006.77 1006.77 1006.75 1006.70 1006.60 1006.42 1006.16 1005.83 1005.45 1005.04
1016.56 1016.49 1016.39 1016.27 1016.10 1015.89 1015.63 1015.33 1014.97 1014.56 1014.11 1013.64 1013.16 1012.69 1012.25 1011.85 1011.50 1011.18 1010.89 1010.61 1010.33 1010.02 1009.68 1009.29 1008.87 1008.42 1007.96 1007.52 1007.12 1006.80 1006.55 1006.39 1006.31 1006.28 1006.30 1006.31 1006.31 1006.25 1006.14 1005.95 1005.69 1005.39 1005.04
1016.13 1016.05 1015.92 1015.76 1015.54 1015.28 1014.96 1014.58 1014.14 1013.67 1013.16 1012.64 1012.14 1011.67 1011.24 1010.88 1010.58 1010.32 1010.11 1009.91 1009.70 1009.45 1009.16 1008.82 1008.42 1007.98 1007.52 1007.07 1006.66 1006.32 1006.05 1005.87 1005.78 1005.75 1005.78 1005.82 1005.85 1005.85 1005.80 1005.68 1005.51 1005.28 1005.02
1015.67 1015.56 1015.41 1015.21 1014.96 1014.65 1014.28 1013.84 1013.35 1012.82 1012.27 1011.72 1011.20 1010.73 1010.33 1009.99 1009.73 1009.53 1009.37 1009.22 1009.06 1008.87 1008.61 1008.29 1007.91 1007.48 1007.02 1006.56 1006.14 1005.77 1005.49 1005.29 1005.19 1005.16 1005.19 1005.26 1005.33 1005.37 1005.39 1005.35 1005.25 1005.11 1004.93
1015.15 1015.01 1014.83 1014.61 1014.32 1013.98 1013.57 1013.10 1012.58 1012.02 1011.44 1010.88 1010.35 1009.88 1009.48 1009.17 1008.93 1008.76 1008.63 1008.51 1008.38 1008.21 1007.97 1007.67 1007.29 1006.87 1006.40 1005.94 1005.50 1005.13 1004.83 1004.62 1004.51 1004.49 1004.53 1004.62 1004.72 1004.82 1004.89 1004.91 1004.90 1004.83 1004.73
1014.51 1014.34 1014.14 1013.90 1013.59 1013.23 1012.81 1012.32 1011.79 1011.22 1010.63 1010.07 1009.54 1009.08 1008.69 1008.38 1008.15 1007.99 1007.87 1007.76 1007.63 1007.46 1007.22 1006.92 1006.54 1006.11 1005.65 1005.19 1004.75 1004.37 1004.07 1003.87 1003.76 1003.74 1003.79 1003.90 1004.03 1004.17 1004.28 1004.36 1004.41 1004.40 1004.36
1013.75 1013.55 1013.33 1013.06 1012.75 1012.39 1011.96 1011.48 1010.95 1010.38 1009.81 1009.25 1008.74 1008.28 1007.89 1007.59 1007.36 1007.18 1007.05 1006.92 1006.78 1006.60 1006.36 1006.05 1005.67 1005.24 1004.79 1004.33 1003.90 1003.53 1003.24 1003.04 1002.93 1002.92 1002.99 1003.11 1003.26 1003.42 1003.56 1003.68 1003.76 1003.80 1003.79
1012.86 1012.63 1012.38 1012.11 1011.79 1011.43 1011.02 1010.55 1010.03 1009.49 1008.94 1008.40 1007.90 1007.45 1007.07 1006.76 1006.52 1006.33 1006.18 1006.03 1005.87 1005.67 1005.42 1005.10 1004.72 1004.30 1003.86 1003.41 1003.00 1002.64 1002.36 1002.17 1002.07 1002.06 1002.13 1002.25 1002.41 1002.57 1002.73 1002.86 1002.95 1003.01 1003.03
1011.87 1011.61 1011.34 1011.06 1010.74 1010.39 1009.99 1009.54 1009.05 1008.53 1008.01 1007.49 1007.01 1006.57 1006.20 1005.89 1005.64 1005.44 1005.27 1005.11 1004.93 1004.71 1004.45 1004.13 1003.76 1003.35 1002.92 1002.49 1002.10 1001.76 1001.49 1001.30 1001.20 1001.18 1001.24 1001.35 1001.49 1001.64 1001.78 1001.90 1001.99 1002.05 1002.07
1010.81 1010.53 1010.25 1009.96 1009.65 1009.30 1008.91 1008.48 1008.01 1007.52 1007.02 1006.53 1006.07 1005.66 1005.30 1005.00 1004.75 1004.55 1004.37 1004.19 1004.01 1003.79 1003.52 1003.20 1002.84 1002.44 1002.03 1001.62 1001.23 1000.90 1000.63 1000.44 1000.33 1000.29 1000.32 1000.40 1000.51 1000.62 1000.74 1000.83 1000.90 1000.94 1000.95
1009.76 1009.46 1009.17 1008.87 1008.56 1008.21 1007.83 1007.41 1006.96 1006.49 1006.02 1005.56 1005.12 1004.73 1004.39 1004.11 1003.87 1003.67 1003.50 1003.32 1003.13 1002.91 1002.65 1002.34 1001.98 1001.59 1001.19 1000.78 1000.40 1000.07 999.79 999.58 999.45 999.38 999.37 999.40 999.46 999.53 999.60 999.66 999.70 999.71 999.71
1008.76 1008.45 1008.15 1007.84 1007.52 1007.17 1006.79 1006.38 1005.94 1005.49 1005.03 1004.60 1004.19 1003.83 1003.52 1003.25 1003.03 1002.85 1002.68 1002.51 1002.32 1002.10 1001.83 1001.52 1001.16 1000.78 1000.37 999.96 999.57 999.22 998.92 998.69 998.51 998.40 998.35 998.33 998.34 998.36 998.39 998.40 998.40 998.39 998.37
Thickness
5561 5555 5549 5544 5539 5534 5529 5525 5521 5517 5513 5509 5505 5502 5498 5495 5491 5487 5483 5479 5475 5471 5466 5462 5457 5452 5446 5440 5433 5427 5421 5415 5419 5430 5420 5413 5407 5403 5402 5399 5397 5396 5396
5552 5546 5539 5534 5529 5523 5519 5514 5510 5506 5502 5498 5494 5490 5487 5483 5479 5475 5471 5468 5463 5458 5454 5448 5443 5437 5431 5424 5417 5411 5406 5399 5396 5403 5404 5395 5389 5384 5382 5380 5379 5379 5379
5543 5536 5529 5523 5518 5513 5508 5504 5499 5495 5491 5487 5483 5479 5475 5472 5468 5464 5459 5455 5450 5445 5440 5434 5428 5421 5415 5409 5402 5396 5390 5385 5379 5379 5383 5378 5373 5368 5366 5365 5365 5365 5365
5533 5526 5519 5513 5508 5503 5498 5493 5489 5484 5480 5476 5471 5467 5463 5460 5456 5451 5447 5443 5438 5432 5426 5419 5412 5405 5399 5393 5387 5380 5374 5369 5364 5361 5363 5362 5359 5355 5351 5351 5353 5353 5353
5523 5516 5509 5504 5498 5493 5488 5483 5478 5473 5469 5465 5460 5456 5452 5447 5444 5440 5436 5432 5426 5420 5413 5405 5398 5391 5385 5378 5373 5366 5359 5354 5350 5347 5348 5347 5346 5342 5339 5339 5341 5344 5346
5513 5506 5500 5494 5488 5482 5477 5472 5467 5463 5458 5454 5449 5445 5440 5436 5433 5429 5425 5420 5413 5406 5399 5391 5383 5376 5369 5363 5357 5352 5345 5340 5336 5333 5334 5334 5335 5331 5330 5330 5331 5334 5339
5503 5496 5489 5483 5477 5472 5467 5462 5457 5452 5448 5443 5439 5434 5429 5425 5421 5418 5413 5407 5400 5391 5383 5375 5368 5361 5353 5346 5341 5338 5333 5327 5324 5322 5323 5324 5323 5322 5321 5323 5323 5325 5330
5492 5485 5479 5473 5467 5462 5457 5452 5447 5442 5437 5433 5428 5423 5418 5414 5409 5405 5399 5393 5385 5376 5367 5358 5351 5345 5338 5332 5330 5328 5324 5320 5316 5314 5314 5316 5316 5316 5315 5317 5318 5321 5324
5481 5475 5469 5463 5458 5452 5447 5442 5438 5433 5428 5423 5418 5413 5407 5402 5396 5390 5384 5378 5370 5361 5352 5344 5335 5331 5327 5323 5321 5319 5317 5315 5312 5311 5312 5313 5314 5314 5313 5313 5313 5313 5318
5471 5466 5460 5454 5448 5443 5438 5433 5428 5423 5418 5414 5408 5401 5394 5388 5382 5375 5367 5361 5355 5349 5341 5332 5325 5320 5318 5315 5311 5309 5309 5308 5307 5306 5306 5306 5306 5305 5306 5305 5304 5305 5308
5462 5456 5450 5444 5438 5433 5428 5423 5417 5412 5407 5402 5397 5392 5383 5375 5368 5360 5351 5343 5337 5333 5328 5322 5315 5311 5309 5307 5305 5302 5301 5302 5301 5299 5298 5298 5298 5298 5297 5297 5296 5296 5299
5452 5446 5440 5434 5429 5424 5417 5412 5406 5399 5394 5389 5385 5381 5372 5362 5353 5345 5338 5330 5323 5319 5316 5311 5307 5305 5303 5302 5299 5297 5297 5295 5291 5289 5290 5290 5290 5290 5290 5291 5291 5292 5292
5441 5435 5429 5424 5418 5412 5406 5400 5394 5387 5380 5376 5370 5366 5362 5352 5341 5332 5325 5319 5312 5307 5304 5302 5301 5299 5297 5294 5291 5290 5289 5284 5281 5281 5282 5283 5282 5283 5284 5285 5286 5287 5289
5430 5424 5419 5413 5408 5402 5395 5388 5381 5374 5366 5360 5354 5350 5347 5340 5329 5320 5313 5307 5302 5298 5295 5294 5293 5290 5287 5285 5283 5280 5277 5275 5274 5275 5275 5276 5276 5276 5277 5278 5279 5281 5283
5418 5413 5408 5402 5396 5391 5385 5377 5369 5363 5351 5345 5340 5333 5327 5325 5319 5310 5304 5299 5294 5290 5289 5287 5284 5280 5278 5276 5274 5273 5271 5269 5268 5268 5268 5269 5270 5271 5272 5272 5272 5274 5275
5407 5402 5396 5390 5384 5378 5373 5369 5362 5351 5344 5334 5325 5317 5312 5308 5304 5300 5294 5290 5286 5284 5281 5277 5274 5271 5270 5269 5268 5267 5265 5264 5263 5262 5262 5262 5263 5264 5265 5266 5266 5266 5268
5395 5390 5384 5378 5371 5365 5359 5353 5351 5348 5336 5323 5313 5304 5297 5294 5290 5287 5284 5281 5279 5276 5271 5267 5265 5264 5264 5263 5262 5261 5260 5259 5258 5257 5256 5256 5257 5258 5258 5259 5259 5259 5261
5384 5379 5373 5366 5358 5351 5344 5337 5330 5326 5324 5318 5306 5293 5286 5283 5280 5276 5274 5272 5269 5265 5261 5259 5259 5259 5258 5258 5258 5257 5256 5255 5253 5252 5251 5250 5250 5251 5252 5253 5253 5253 5254
5373 5366 5360 5353 5346 5338 5331 5323 5315 5308 5303 5300 5295 5287 5278 5273 5271 5267 5264 5260 5258 5257 5256 5254 5254 5254 5254 5254 5254 5253 5252 5250 5249 5247 5246 5245 5245 5245 5246 5247 5247 5249 5249
5362 5356 5349 5342 5334 5326 5317 5308 5301 5294 5288 5283 5279 5274 5268 5264 5262 5260 5256 5252 5251 5250 5250 5250 5250 5250 5250 5250 5250 5249 5248 5247 5245 5243 5242 5242 5241 5241 5241 5241 5241 5241 5242
5350 5343 5337 5328 5319 5311 5303 5295 5288 5281 5276 5271 5267 5262 5259 5256 5254 5252 5249 5247 5246 5245 5245 5245 5246 5246 5246 5246 5246 5246 5245 5244 5242 5241 5240 5239 5237 5237 5237 5237 5237 5237 5237
5337 5330 5322 5314 5306 5298 5290 5283 5276 5269 5264 5259 5257 5254 5251 5247 5245 5244 5243 5243 5242 5241 5241 5241 5243 5243 5243 5243 5243 5243 5242 5241 5240 5238 5237 5236 5234 5234 5233 5233 5232 5232 5232
5324 5316 5309 5301 5293 5286 5279 5271 5263 5257 5253 5249 5246 5244 5242 5240 5239 5238 5238 5238 5238 5238 5238 5238 5239 5240 5240 5240 5240 5240 5240 5239 5238 5236 5235 5234 5232 5231 5230 5229 5228 5228 5228
5310 5303 5295 5288 5281 5273 5266 5260 5253 5248 5243 5240 5237 5235 5234 5233 5233 5233 5233 5234 5234 5235 5235 5235 5236 5237 5238 5237 5238 5238 5237 5237 5235 5234 5233 5232 5231 5230 5228 5226 5226 5225 5224
5298 5289 5282 5274 5267 5260 5254 5249 5244 5239 5235 5233 5231 5229 5228 5228 5228 5229 5229 5230 5230 5231 5232 5233 5233 5234 5235 5235 5235 5235 5236 5236 5235 5234 5233 5232 5231 5229 5227 5225 5224 5223 5221
5285 5276 5269 5261 5255 5249 5243 5240 5236 5233 5230 5227 5226 5224 5223 5223 5224 5225 5226 5226 5227 5229 5230 5231 5231 5232 5233 5233 5234 5234 5235 5236 5236 5235 5234 5233 5231 5230 5227 5226 5224 5222 5220